User: anonymous   Login
Location: Unspecified
(0.0000°N, 0.0000°E)
Time: 15:31:55
(UTC+00:00)
Language:

AO-73 - Orbit

View from above orbital plane
View from above orbital plane
View from above satellite
View from above satellite

Ground track
Ground track

The orbit data is extracted from the following two-line orbital elements,

1 39444U 13066AE  20292.97438381  .00000257  00000-0  37829-4 0  9995
2 39444  97.5663 286.4685 0056782 223.4366 136.2368 14.82201013372255
Epoch (UTC): 18 October 2020 23:23:06
Eccentricity: 0.0056782
inclination: 97.5663°
perigee height: 582 km
apogee height: 662 km
right ascension of ascending node: 286.4685°
argument of perigee: 223.4366°
revolutions per day: 14.82201013
mean anomaly at epoch: 136.2368°
orbit number at epoch: 37225

The dashed part of the orbit path shows where the satellite is in the earth's shadow,  

DLR